Weather History for Sheridan, WY

Change the Weather History Date:

Sunday, March 30, 2014

  Actual Average Record
Temperature  
Mean Temperature 40 °F 39 °F  
Max Temperature 51 °F 53 °F 78 °F (2004)
Min Temperature 29 °F 26 °F -17 °F (1936)
Degree Days  
Heating Degree Days 25 26  
Month to date heating degree days 951 899  
Since 1 July heating degree days 6701 6434  
Cooling Degree Days 0 0  
Month to date cooling degree days 0 0  
Year to date cooling degree days 0 0  
Moisture  
Dew Point 31 °F    
Average Humidity 68    
Maximum Humidity 89    
Minimum Humidity 46    
Precipitation  
Precipitation 0.13 in 0.04 in 0.40 in (1929)
Month to date precipitation 1.59 0.94  
Year to date precipitation 3.44 2.04  
Sea Level Pressure  
Sea Level Pressure 29.71 in    
Wind  
Wind Speed 16 mph (NW)    
Max Wind Speed 37 mph    
Max Gust Speed 44 mph    
Visibility 6 miles    
Events Rain , Snow    
T = Trace of Precipitation, MM = Missing Value Source: NWS Daily Summary

Daily Weather History Graph

Daily Weather History Graph

Search for Another Location

Airport:

Trip Planner

Search our weather history database for the weather conditions in past years. The results will help you decide how hot, cold, wet, or windy it might be!

Date:

Astronomy

Mar. 30, 2014 Rise Set
Actual Time 6:52 AM MDT 7:33 PM MDT
Civil Twilight 6:22 AM MDT 8:02 PM MDT
Nautical Twilight 5:47 AM MDT 8:37 PM MDT
Astronomical Twilight 5:11 AM MDT 9:14 PM MDT
Moon 6:39 AM MDT (3/30) 7:50 PM MDT (3/30)
Length of Visible Light 13h 39m
Length of Day
12h 40m
Waning Crescent, 0% of the Moon is Illuminated
Mar 30
Waning Crescent
Mar 30
New
Apr 7
First Quarter
Apr 15
Full
Apr 22
Last Quarter

Hourly Weather History & Observations

Time (MDT) Temp. Windchill Dew Point Humidity Pressure Visibility Wind Dir Wind Speed Gust Speed Precip Events Conditions
12:53 AM 42.1 °F 37.7 °F 34.0 °F 73% 29.82 in 10.0 mi WNW 6.9 mph - N/A   Overcast
1:53 AM 41.0 °F 39.0 °F 33.1 °F 73% 29.80 in 10.0 mi South 3.5 mph - N/A   Overcast
2:53 AM 37.9 °F - 32.0 °F 79% 29.77 in 10.0 mi Calm Calm - N/A   Overcast
3:53 AM 35.1 °F 30.1 °F 30.9 °F 85% 29.77 in 10.0 mi NW 5.8 mph - N/A   Scattered Clouds
4:53 AM 34.0 °F - 30.0 °F 85% 29.76 in 10.0 mi Calm Calm - N/A   Mostly Cloudy
5:53 AM 35.1 °F - 30.9 °F 85% 29.77 in 10.0 mi Calm Calm - N/A   Mostly Cloudy
6:53 AM 36.0 °F 31.1 °F 32.0 °F 86% 29.76 in 10.0 mi SSE 5.8 mph - N/A   Overcast
7:53 AM 39.0 °F - 34.0 °F 82% 29.76 in 10.0 mi Calm Calm - N/A   Overcast
8:53 AM 41.0 °F 38.0 °F 34.0 °F 76% 29.73 in 10.0 mi East 4.6 mph - N/A   Overcast
9:53 AM 46.0 °F 40.2 °F 33.1 °F 61% 29.68 in 10.0 mi ESE 12.7 mph - N/A   Clear
10:53 AM 48.0 °F - 30.9 °F 52% 29.66 in 10.0 mi East 12.7 mph - N/A   Partly Cloudy
11:53 AM 50.0 °F - 30.9 °F 48% 29.63 in 10.0 mi ESE 9.2 mph - N/A   Partly Cloudy
12:53 PM 48.9 °F - 34.0 °F 56% 29.60 in 10.0 mi West 11.5 mph - N/A   Overcast
1:53 PM 51.1 °F - 32.0 °F 48% 29.57 in 10.0 mi NNE 8.1 mph - N/A   Overcast
2:53 PM 46.9 °F - 36.0 °F 66% 29.58 in 10.0 mi NW 19.6 mph - N/A   Overcast
3:53 PM 42.1 °F 31.9 °F 36.0 °F 79% 29.61 in 10.0 mi WNW 26.5 mph - N/A   Overcast
4:53 PM 37.9 °F 26.6 °F 34.0 °F 86% 29.65 in 10.0 mi NW 25.3 mph 32.2 mph 0.00 in Rain Light Rain
5:53 PM 36.0 °F 24.4 °F 33.1 °F 89% 29.67 in 8.0 mi WNW 23.0 mph - 0.00 in Snow Light Snow
6:10 PM 35.1 °F 22.7 °F 32.0 °F 89% 29.62 in 2.5 mi WNW 25.3 mph - 0.01 in Snow Light Snow
6:30 PM 34.0 °F 21.8 °F 30.9 °F 89% 29.64 in 1.2 mi WNW 23.0 mph 29.9 mph 0.03 in Snow Light Snow
6:40 PM 34.0 °F 21.5 °F 30.9 °F 89% 29.64 in 1.8 mi WNW 24.2 mph 31.1 mph 0.04 in Snow Light Snow
6:53 PM 34.0 °F 21.8 °F 30.9 °F 89% 29.71 in 2.0 mi NW 23.0 mph - 0.05 in Snow Light Snow
7:06 PM 34.0 °F 21.0 °F 30.9 °F 89% 29.66 in 2.5 mi WNW 26.5 mph - 0.01 in Snow Light Snow
7:42 PM 34.0 °F 21.5 °F 30.9 °F 89% 29.67 in 3.0 mi NW 24.2 mph - 0.02 in Snow Light Snow
7:53 PM 34.0 °F 21.0 °F 30.9 °F 89% 29.73 in 3.0 mi NW 26.5 mph - 0.02 in Snow Light Snow
8:03 PM 34.0 °F 21.5 °F 30.9 °F 89% 29.68 in 2.0 mi WNW 24.2 mph - 0.00 in Snow Light Snow
8:19 PM 34.0 °F 21.5 °F 30.9 °F 89% 29.69 in 3.0 mi WNW 24.2 mph 29.9 mph 0.01 in Snow Light Snow
8:51 PM 33.8 °F 20.8 °F 30.2 °F 87% 29.71 in 1.8 mi WNW 26.5 mph 33.4 mph 0.01 in Snow Light Snow
8:53 PM 33.1 °F 20.1 °F 30.9 °F 92% 29.77 in 1.5 mi WNW 25.3 mph 33.4 mph 0.01 in Snow Light Snow
9:05 PM 33.1 °F 20.1 °F 30.9 °F 92% 29.72 in 0.8 mi WNW 25.3 mph 34.5 mph 0.00 in Snow Light Snow
9:18 PM 33.1 °F 20.1 °F 30.9 °F 92% 29.72 in 1.0 mi NW 25.3 mph 34.5 mph 0.01 in Snow Light Snow
9:53 PM 33.1 °F 19.6 °F 30.0 °F 89% 29.76 in 1.2 mi WNW 27.6 mph 36.8 mph 0.03 in Snow Light Snow
10:04 PM 32.0 °F 17.9 °F 30.0 °F 92% 29.72 in 1.2 mi WNW 28.8 mph 36.8 mph 0.00 in Snow Light Snow
10:16 PM 32.0 °F 17.0 °F 28.9 °F 88% 29.72 in 1.5 mi WNW 33.4 mph 36.8 mph 0.00 in Snow Light Snow
10:53 PM 32.0 °F 16.5 °F 28.9 °F 88% 29.77 in 1.5 mi WNW 35.7 mph 44.9 mph 0.01 in Snow Light Snow
11:19 PM 30.9 °F 15.5 °F 28.0 °F 89% 29.74 in 2.0 mi NW 33.4 mph 42.6 mph 0.00 in Snow Light Snow
11:35 PM 30.9 °F 15.3 °F 28.0 °F 89% 29.74 in 3.0 mi WNW 34.5 mph - 0.00 in Snow Light Snow
11:45 PM 30.9 °F 15.1 °F 27.0 °F 85% 29.75 in 2.0 mi WNW 35.7 mph 43.7 mph 0.00 in Snow Light Snow
11:53 PM 30.9 °F 14.9 °F 27.0 °F 85% 29.80 in 1.8 mi WNW 36.8 mph 43.7 mph 0.00 in Snow Light Snow